QPF
0.00 0.00 0.02 0.03 0.03 0.05 0.06 0.01 0.00 0.00 0.00 0.00 0.00 0.00 0.00 0.00 0.00 0.00 0.00 0.00 0.00 0.00 0.00 0.00 0.00 0.00 0.00 0.00 0.00 0.00 0.00 0.00 0.00 0.00 0.00 0.00 0.00 0.00 0.00 0.00 0.00 0.00 0.00 0.00 0.00 0.00 0.00 0.00 0.00
0.00 0.00 0.02 0.03 0.04 0.07 0.04 0.01 0.00 0.00 0.00 0.00 0.00 0.00 0.00 0.00 0.00 0.00 0.00 0.00 0.00 0.00 0.00 0.00 0.00 0.00 0.00 0.00 0.00 0.00 0.00 0.00 0.00 0.00 0.00 0.00 0.00 0.00 0.00 0.00 0.00 0.00 0.00 0.00 0.00 0.00 0.00 0.00 0.00
0.00 0.00 0.01 0.02 0.04 0.07 0.05 0.02 0.01 0.00 0.00 0.00 0.00 0.00 0.00 0.00 0.00 0.00 0.00 0.00 0.00 0.00 0.00 0.00 0.00 0.00 0.00 0.00 0.00 0.00 0.00 0.00 0.00 0.00 0.00 0.00 0.00 0.00 0.00 0.00 0.00 0.00 0.00 0.00 0.00 0.00 0.00 0.00 0.00
0.00 0.00 0.00 0.00 0.02 0.05 0.06 0.04 0.02 0.01 0.00 0.00 0.00 0.00 0.00 0.00 0.00 0.00 0.00 0.00 0.00 0.00 0.00 0.00 0.00 0.00 0.00 0.00 0.00 0.00 0.00 0.00 0.00 0.00 0.00 0.00 0.00 0.00 0.00 0.00 0.00 0.00 0.00 0.00 0.00 0.00 0.00 0.00 0.00
0.00 0.00 0.00 0.00 0.01 0.04 0.06 0.06 0.03 0.01 0.00 0.00 0.00 0.00 0.00 0.00 0.00 0.00 0.00 0.00 0.00 0.00 0.00 0.00 0.00 0.00 0.00 0.00 0.00 0.00 0.00 0.00 0.00 0.00 0.00 0.00 0.00 0.00 0.00 0.00 0.00 0.00 0.00 0.00 0.00 0.00 0.00 0.00 0.00
0.00 0.00 0.00 0.00 0.00 0.02 0.07 0.06 0.04 0.02 0.01 0.00 0.00 0.00 0.00 0.00 0.00 0.00 0.00 0.00 0.00 0.00 0.00 0.00 0.00 0.00 0.00 0.00 0.00 0.00 0.00 0.00 0.00 0.00 0.00 0.00 0.00 0.00 0.00 0.00 0.00 0.00 0.00 0.00 0.00 0.00 0.00 0.00 0.00
0.00 0.00 0.00 0.00 0.00 0.02 0.05 0.06 0.05 0.02 0.01 0.00 0.00 0.00 0.00 0.00 0.00 0.00 0.00 0.00 0.00 0.00 0.00 0.00 0.00 0.00 0.00 0.00 0.00 0.00 0.00 0.00 0.00 0.00 0.00 0.00 0.00 0.00 0.00 0.00 0.00 0.00 0.00 0.00 0.00 0.00 0.00 0.00 0.00
0.00 0.00 0.00 0.00 0.00 0.01 0.01 0.03 0.05 0.04 0.02 0.01 0.00 0.00 0.00 0.00 0.00 0.00 0.00 0.00 0.00 0.00 0.00 0.00 0.00 0.00 0.00 0.00 0.00 0.00 0.00 0.00 0.00 0.00 0.00 0.00 0.00 0.00 0.00 0.00 0.00 0.00 0.00 0.00 0.00 0.00 0.00 0.00 0.00
0.00 0.00 0.00 0.00 0.00 0.00 0.00 0.01 0.03 0.03 0.03 0.02 0.01 0.01 0.01 0.00 0.00 0.00 0.00 0.00 0.00 0.00 0.00 0.00 0.00 0.00 0.00 0.00 0.00 0.00 0.00 0.00 0.00 0.00 0.00 0.00 0.00 0.00 0.00 0.01 0.02 0.04 0.04 0.03 0.01 0.01 0.00 0.00 0.00
0.00 0.00 0.00 0.00 0.00 0.00 0.00 0.00 0.01 0.01 0.02 0.03 0.04 0.05 0.03 0.01 0.00 0.00 0.00 0.00 0.00 0.00 0.00 0.00 0.00 0.00 0.00 0.00 0.00 0.00 0.00 0.00 0.00 0.00 0.00 0.00 0.00 0.00 0.01 0.02 0.05 0.09 0.12 0.09 0.09 0.07 0.04 0.02 0.01
0.00 0.00 0.00 0.00 0.00 0.00 0.00 0.00 0.00 0.00 0.00 0.01 0.03 0.07 0.05 0.02 0.00 0.00 0.00 0.00 0.00 0.01 0.00 0.00 0.00 0.00 0.00 0.00 0.00 0.00 0.00 0.00 0.00 0.00 0.00 0.00 0.01 0.01 0.01 0.03 0.09 0.11 0.16 0.11 0.14 0.15 0.08 0.05 0.04
0.00 0.00 0.00 0.00 0.00 0.00 0.00 0.00 0.00 0.00 0.00 0.00 0.01 0.02 0.02 0.01 0.01 0.00 0.00 0.00 0.01 0.02 0.01 0.01 0.01 0.00 0.00 0.00 0.00 0.00 0.00 0.00 0.00 0.01 0.02 0.04 0.04 0.04 0.04 0.05 0.07 0.07 0.09 0.10 0.11 0.10 0.12 0.12 0.10
0.00 0.00 0.00 0.00 0.00 0.00 0.00 0.00 0.00 0.00 0.00 0.00 0.00 0.01 0.02 0.01 0.01 0.01 0.01 0.01 0.02 0.04 0.04 0.04 0.05 0.03 0.01 0.01 0.01 0.01 0.01 0.02 0.03 0.04 0.06 0.07 0.08 0.07 0.07 0.07 0.06 0.05 0.06 0.09 0.10 0.11 0.13 0.14 0.14
0.00 0.00 0.00 0.00 0.00 0.00 0.00 0.00 0.00 0.00 0.00 0.00 0.00 0.00 0.02 0.03 0.05 0.07 0.04 0.03 0.05 0.08 0.11 0.14 0.15 0.10 0.06 0.04 0.03 0.03 0.03 0.03 0.04 0.05 0.05 0.05 0.06 0.07 0.08 0.07 0.06 0.04 0.05 0.07 0.08 0.09 0.09 0.09 0.10
0.00 0.00 0.00 0.00 0.00 0.00 0.00 0.00 0.00 0.00 0.00 0.00 0.00 0.00 0.01 0.03 0.08 0.13 0.12 0.11 0.14 0.21 0.23 0.26 0.31 0.29 0.20 0.14 0.10 0.07 0.05 0.06 0.06 0.05 0.04 0.04 0.05 0.06 0.05 0.04 0.03 0.03 0.03 0.03 0.03 0.03 0.04 0.04 0.04
0.00 0.00 0.00 0.00 0.00 0.00 0.00 0.00 0.00 0.00 0.00 0.00 0.00 0.01 0.01 0.03 0.05 0.08 0.13 0.22 0.37 0.48 0.50 0.51 0.53 0.50 0.42 0.34 0.23 0.15 0.12 0.12 0.11 0.07 0.04 0.04 0.03 0.02 0.02 0.01 0.01 0.01 0.01 0.01 0.00 0.01 0.01 0.01 0.01
0.00 0.00 0.00 0.00 0.00 0.00 0.00 0.00 0.00 0.00 0.00 0.00 0.00 0.02 0.03 0.05 0.09 0.13 0.25 0.48 0.75 0.98 1.12 1.12 1.02 0.82 0.71 0.59 0.42 0.27 0.21 0.17 0.13 0.09 0.05 0.03 0.01 0.01 0.00 0.00 0.00 0.00 0.00 0.00 0.00 0.00 0.00 0.00 0.00
0.00 0.00 0.00 0.00 0.00 0.00 0.00 0.00 0.00 0.00 0.00 0.01 0.01 0.02 0.04 0.07 0.15 0.26 0.43 0.70 1.03 1.31 1.63 1.81 1.66 1.38 1.12 0.83 0.57 0.42 0.30 0.20 0.14 0.11 0.08 0.04 0.01 0.00 0.00 0.00 0.00 0.00 0.00 0.00 0.00 0.00 0.00 0.00 0.00
0.00 0.00 0.00 0.00 0.00 0.00 0.00 0.00 0.00 0.00 0.00 0.00 0.01 0.02 0.05 0.10 0.20 0.33 0.52 0.84 1.21 1.57 1.98 2.13 2.00 1.58 1.17 0.91 0.71 0.52 0.32 0.19 0.12 0.08 0.06 0.03 0.01 0.00 0.00 0.00 0.00 0.00 0.00 0.00 0.00 0.00 0.00 0.00 0.00
0.00 0.00 0.00 0.00 0.00 0.00 0.00 0.00 0.00 0.00 0.01 0.01 0.01 0.03 0.05 0.09 0.18 0.34 0.59 1.00 1.17 1.40 1.85 1.98 1.58 1.14 0.90 0.72 0.57 0.42 0.29 0.23 0.20 0.12 0.06 0.03 0.01 0.00 0.00 0.00 0.00 0.00 0.00 0.00 0.00 0.00 0.00 0.00 0.00
0.00 0.00 0.00 0.00 0.00 0.00 0.00 0.00 0.01 0.01 0.01 0.02 0.03 0.04 0.06 0.10 0.16 0.24 0.43 0.63 0.66 0.78 0.91 0.84 0.75 0.57 0.51 0.46 0.41 0.37 0.28 0.24 0.17 0.11 0.07 0.06 0.04 0.02 0.01 0.00 0.00 0.00 0.00 0.00 0.00 0.00 0.00 0.00 0.00
0.00 0.00 0.00 0.00 0.00 0.00 0.00 0.00 0.02 0.03 0.04 0.05 0.05 0.06 0.06 0.07 0.07 0.11 0.16 0.24 0.25 0.23 0.23 0.27 0.35 0.33 0.34 0.37 0.28 0.29 0.25 0.20 0.14 0.08 0.07 0.07 0.05 0.03 0.01 0.01 0.01 0.00 0.00 0.00 0.00 0.00 0.00 0.00 0.00
0.00 0.00 0.00 0.00 0.00 0.00 0.00 0.01 0.02 0.04 0.07 0.12 0.15 0.11 0.06 0.04 0.03 0.06 0.06 0.07 0.08 0.08 0.10 0.13 0.22 0.28 0.28 0.27 0.20 0.16 0.15 0.12 0.09 0.09 0.10 0.10 0.07 0.05 0.04 0.02 0.01 0.01 0.00 0.00 0.00 0.00 0.00 0.00 0.00
0.00 0.00 0.00 0.00 0.01 0.02 0.03 0.04 0.07 0.11 0.16 0.25 0.24 0.15 0.07 0.03 0.01 0.01 0.02 0.02 0.03 0.06 0.07 0.08 0.11 0.14 0.16 0.17 0.15 0.13 0.12 0.12 0.11 0.10 0.10 0.09 0.09 0.08 0.07 0.04 0.02 0.02 0.02 0.01 0.00 0.00 0.00 0.00 0.00
0.00 0.00 0.00 0.00 0.01 0.02 0.03 0.06 0.13 0.25 0.35 0.42 0.28 0.14 0.06 0.02 0.01 0.00 0.00 0.01 0.01 0.02 0.03 0.04 0.05 0.07 0.09 0.10 0.11 0.11 0.12 0.12 0.12 0.09 0.08 0.08 0.08 0.10 0.10 0.07 0.05 0.03 0.03 0.02 0.01 0.00 0.00 0.00 0.00
0.01 0.01 0.00 0.00 0.00 0.01 0.03 0.09 0.21 0.28 0.36 0.30 0.15 0.06 0.02 0.01 0.00 0.00 0.00 0.00 0.00 0.00 0.01 0.01 0.01 0.02 0.02 0.03 0.04 0.04 0.06 0.08 0.09 0.09 0.08 0.07 0.09 0.12 0.13 0.11 0.10 0.08 0.06 0.04 0.03 0.01 0.01 0.00 0.00
0.02 0.01 0.01 0.00 0.00 0.01 0.05 0.11 0.15 0.18 0.22 0.16 0.08 0.03 0.01 0.00 0.00 0.00 0.00 0.00 0.00 0.00 0.00 0.00 0.00 0.00 0.00 0.00 0.01 0.01 0.02 0.03 0.05 0.06 0.06 0.07 0.09 0.11 0.12 0.12 0.12 0.11 0.08 0.06 0.04 0.02 0.01 0.01 0.00
0.02 0.02 0.01 0.01 0.01 0.01 0.03 0.10 0.14 0.15 0.12 0.10 0.06 0.02 0.01 0.00 0.00 0.00 0.00 0.00 0.00 0.00 0.00 0.00 0.00 0.00 0.00 0.00 0.00 0.00 0.00 0.01 0.01 0.01 0.02 0.03 0.04 0.05 0.07 0.08 0.08 0.08 0.08 0.07 0.06 0.03 0.02 0.01 0.00
0.03 0.03 0.02 0.02 0.01 0.02 0.03 0.07 0.09 0.10 0.10 0.07 0.04 0.02 0.01 0.00 0.00 0.00 0.00 0.00 0.00 0.00 0.00 0.00 0.00 0.00 0.00 0.00 0.00 0.00 0.00 0.00 0.00 0.00 0.00 0.00 0.01 0.01 0.01 0.02 0.03 0.04 0.05 0.06 0.06 0.04 0.03 0.02 0.01
0.04 0.03 0.03 0.03 0.02 0.02 0.03 0.05 0.04 0.05 0.04 0.03 0.02 0.01 0.00 0.00 0.00 0.00 0.00 0.00 0.00 0.00 0.00 0.00 0.00 0.00 0.00 0.00 0.00 0.00 0.00 0.00 0.00 0.00 0.00 0.00 0.00 0.00 0.00 0.00 0.00 0.01 0.02 0.04 0.05 0.04 0.03 0.03 0.02
MSLP
1009.30 1010.41 1011.58 1012.61 1013.29 1013.49 1013.19 1012.44 1011.38 1010.23 1009.21 1008.49 1008.16 1008.22 1008.57 1009.09 1009.60 1009.96 1010.11 1010.05 1009.85 1009.62 1009.47 1009.49 1009.70 1010.09 1010.58 1011.07 1011.49 1011.77 1011.92 1011.97 1011.98 1012.02 1012.14 1012.36 1012.67 1013.01 1013.33 1013.59 1013.75 1013.83 1013.84 1013.83 1013.83 1013.89 1014.00 1014.16 1014.33
1009.60 1010.86 1012.09 1013.08 1013.66 1013.70 1013.20 1012.25 1011.02 1009.73 1008.61 1007.82 1007.44 1007.45 1007.78 1008.26 1008.76 1009.13 1009.33 1009.35 1009.27 1009.18 1009.18 1009.32 1009.63 1010.08 1010.59 1011.08 1011.48 1011.76 1011.92 1012.00 1012.05 1012.14 1012.31 1012.55 1012.84 1013.15 1013.42 1013.62 1013.73 1013.77 1013.77 1013.77 1013.80 1013.88 1014.00 1014.16 1014.31
1009.99 1011.35 1012.61 1013.56 1014.04 1013.95 1013.32 1012.26 1010.94 1009.60 1008.44 1007.62 1007.20 1007.17 1007.43 1007.84 1008.27 1008.60 1008.80 1008.87 1008.88 1008.90 1009.01 1009.26 1009.66 1010.15 1010.68 1011.16 1011.55 1011.83 1012.01 1012.11 1012.21 1012.34 1012.53 1012.77 1013.03 1013.28 1013.47 1013.60 1013.65 1013.66 1013.66 1013.67 1013.74 1013.85 1014.00 1014.16 1014.31
1010.41 1011.80 1013.04 1013.93 1014.33 1014.17 1013.49 1012.40 1011.10 1009.79 1008.67 1007.87 1007.43 1007.34 1007.50 1007.79 1008.11 1008.36 1008.51 1008.59 1008.65 1008.76 1008.97 1009.30 1009.76 1010.28 1010.80 1011.27 1011.65 1011.93 1012.12 1012.26 1012.40 1012.57 1012.76 1012.99 1013.20 1013.38 1013.50 1013.54 1013.54 1013.53 1013.53 1013.57 1013.68 1013.84 1014.02 1014.19 1014.33
1010.75 1012.11 1013.28 1014.08 1014.40 1014.21 1013.54 1012.52 1011.33 1010.14 1009.12 1008.38 1007.95 1007.79 1007.84 1007.99 1008.16 1008.30 1008.39 1008.45 1008.54 1008.71 1008.99 1009.39 1009.88 1010.41 1010.92 1011.37 1011.73 1011.99 1012.20 1012.37 1012.55 1012.74 1012.95 1013.16 1013.33 1013.45 1013.49 1013.48 1013.43 1013.40 1013.41 1013.49 1013.64 1013.83 1014.04 1014.23 1014.36
1010.97 1012.20 1013.23 1013.90 1014.15 1013.93 1013.33 1012.43 1011.41 1010.40 1009.54 1008.89 1008.49 1008.28 1008.22 1008.23 1008.26 1008.28 1008.30 1008.34 1008.46 1008.68 1009.02 1009.47 1009.98 1010.50 1010.98 1011.39 1011.71 1011.96 1012.17 1012.37 1012.58 1012.81 1013.04 1013.25 1013.40 1013.47 1013.47 1013.41 1013.33 1013.29 1013.31 1013.41 1013.59 1013.81 1014.04 1014.23 1014.36
1011.01 1012.04 1012.86 1013.36 1013.49 1013.26 1012.72 1011.98 1011.15 1010.35 1009.67 1009.15 1008.78 1008.55 1008.41 1008.31 1008.23 1008.16 1008.13 1008.18 1008.34 1008.62 1009.02 1009.50 1010.02 1010.52 1010.95 1011.29 1011.56 1011.78 1011.98 1012.20 1012.45 1012.72 1012.99 1013.22 1013.38 1013.44 1013.42 1013.33 1013.24 1013.18 1013.20 1013.32 1013.50 1013.74 1013.97 1014.16 1014.28
1010.91 1011.68 1012.23 1012.51 1012.50 1012.22 1011.73 1011.12 1010.47 1009.88 1009.37 1008.98 1008.68 1008.45 1008.27 1008.10 1007.96 1007.86 1007.84 1007.94 1008.16 1008.52 1008.98 1009.49 1010.00 1010.46 1010.82 1011.10 1011.30 1011.47 1011.65 1011.88 1012.16 1012.48 1012.79 1013.07 1013.25 1013.34 1013.32 1013.24 1013.14 1013.07 1013.08 1013.18 1013.35 1013.57 1013.78 1013.96 1014.07
1010.72 1011.19 1011.45 1011.47 1011.28 1010.92 1010.44 1009.92 1009.42 1008.99 1008.64 1008.37 1008.15 1007.96 1007.78 1007.61 1007.47 1007.41 1007.45 1007.63 1007.95 1008.40 1008.92 1009.46 1009.96 1010.36 1010.64 1010.83 1010.94 1011.05 1011.20 1011.42 1011.73 1012.10 1012.47 1012.80 1013.04 1013.17 1013.18 1013.11 1013.01 1012.93 1012.91 1012.97 1013.11 1013.29 1013.47 1013.62 1013.71
1010.52 1010.69 1010.65 1010.42 1010.03 1009.55 1009.04 1008.56 1008.16 1007.85 1007.62 1007.46 1007.32 1007.19 1007.06 1006.94 1006.87 1006.90 1007.05 1007.35 1007.78 1008.32 1008.90 1009.46 1009.92 1010.26 1010.45 1010.53 1010.56 1010.59 1010.70 1010.90 1011.22 1011.63 1012.05 1012.44 1012.75 1012.93 1012.98 1012.94 1012.84 1012.75 1012.70 1012.71 1012.79 1012.91 1013.04 1013.16 1013.24
1010.38 1010.29 1009.99 1009.51 1008.93 1008.32 1007.75 1007.28 1006.93 1006.69 1006.55 1006.47 1006.41 1006.36 1006.32 1006.30 1006.34 1006.48 1006.77 1007.19 1007.73 1008.35 1008.97 1009.52 1009.94 1010.19 1010.29 1010.27 1010.20 1010.15 1010.20 1010.38 1010.70 1011.12 1011.58 1012.03 1012.39 1012.63 1012.74 1012.73 1012.65 1012.54 1012.46 1012.42 1012.43 1012.49 1012.57 1012.65 1012.71
1010.35 1010.07 1009.55 1008.87 1008.13 1007.41 1006.78 1006.29 1005.95 1005.77 1005.68 1005.67 1005.70 1005.73 1005.79 1005.88 1006.05 1006.32 1006.72 1007.25 1007.87 1008.52 1009.14 1009.66 1010.01 1010.18 1010.18 1010.06 1009.91 1009.79 1009.77 1009.91 1010.21 1010.63 1011.11 1011.59 1012.00 1012.29 1012.45 1012.48 1012.42 1012.32 1012.21 1012.13 1012.09 1012.09 1012.12 1012.15 1012.19
1010.44 1010.02 1009.36 1008.55 1007.71 1006.92 1006.25 1005.75 1005.43 1005.28 1005.25 1005.30 1005.40 1005.52 1005.67 1005.87 1006.14 1006.51 1006.99 1007.57 1008.20 1008.84 1009.42 1009.86 1010.13 1010.21 1010.12 1009.93 1009.70 1009.51 1009.45 1009.54 1009.79 1010.19 1010.66 1011.14 1011.58 1011.91 1012.12 1012.20 1012.18 1012.10 1012.00 1011.90 1011.82 1011.78 1011.76 1011.75 1011.76
1010.62 1010.12 1009.39 1008.54 1007.67 1006.87 1006.22 1005.75 1005.47 1005.36 1005.38 1005.49 1005.65 1005.85 1006.08 1006.35 1006.69 1007.10 1007.59 1008.14 1008.72 1009.27 1009.75 1010.09 1010.25 1010.25 1010.10 1009.85 1009.57 1009.35 1009.23 1009.27 1009.48 1009.82 1010.25 1010.71 1011.14 1011.50 1011.76 1011.89 1011.94 1011.91 1011.83 1011.75 1011.67 1011.60 1011.55 1011.51 1011.48
1010.82 1010.30 1009.57 1008.74 1007.91 1007.18 1006.61 1006.22 1006.01 1005.97 1006.06 1006.23 1006.45 1006.71 1006.99 1007.29 1007.63 1008.01 1008.44 1008.89 1009.34 1009.74 1010.07 1010.28 1010.34 1010.26 1010.06 1009.79 1009.50 1009.26 1009.12 1009.11 1009.25 1009.52 1009.88 1010.30 1010.71 1011.07 1011.37 1011.57 1011.68 1011.73 1011.72 1011.68 1011.62 1011.56 1011.49 1011.43 1011.35
1010.99 1010.47 1009.78 1009.04 1008.34 1007.75 1007.32 1007.06 1006.97 1007.02 1007.18 1007.42 1007.69 1007.98 1008.27 1008.56 1008.85 1009.14 1009.43 1009.72 1009.97 1010.19 1010.33 1010.39 1010.35 1010.21 1010.00 1009.74 1009.47 1009.25 1009.09 1009.04 1009.11 1009.30 1009.57 1009.91 1010.28 1010.63 1010.95 1011.22 1011.42 1011.55 1011.64 1011.67 1011.66 1011.63 1011.57 1011.48 1011.37
1011.06 1010.57 1009.98 1009.39 1008.87 1008.48 1008.23 1008.14 1008.19 1008.36 1008.60 1008.89 1009.19 1009.49 1009.76 1009.99 1010.19 1010.34 1010.45 1010.53 1010.56 1010.55 1010.51 1010.42 1010.29 1010.12 1009.91 1009.69 1009.48 1009.28 1009.14 1009.06 1009.06 1009.15 1009.32 1009.56 1009.86 1010.19 1010.52 1010.84 1011.13 1011.36 1011.55 1011.67 1011.74 1011.75 1011.71 1011.62 1011.49
1011.02 1010.59 1010.13 1009.73 1009.44 1009.28 1009.25 1009.36 1009.56 1009.83 1010.14 1010.46 1010.77 1011.04 1011.25 1011.40 1011.47 1011.47 1011.39 1011.24 1011.05 1010.83 1010.61 1010.39 1010.18 1010.00 1009.83 1009.67 1009.52 1009.38 1009.25 1009.15 1009.09 1009.08 1009.14 1009.28 1009.49 1009.77 1010.10 1010.46 1010.81 1011.14 1011.42 1011.64 1011.79 1011.86 1011.86 1011.78 1011.63
1010.90 1010.55 1010.26 1010.08 1010.04 1010.13 1010.33 1010.62 1010.95 1011.30 1011.65 1011.97 1012.24 1012.45 1012.59 1012.64 1012.59 1012.43 1012.17 1011.83 1011.44 1011.04 1010.67 1010.35 1010.09 1009.91 1009.79 1009.70 1009.63 1009.55 1009.44 1009.32 1009.20 1009.10 1009.05 1009.07 1009.19 1009.41 1009.71 1010.07 1010.47 1010.87 1011.23 1011.53 1011.76 1011.89 1011.93 1011.88 1011.75
1010.72 1010.50 1010.41 1010.48 1010.69 1011.03 1011.44 1011.88 1012.30 1012.69 1013.02 1013.29 1013.49 1013.62 1013.66 1013.61 1013.44 1013.16 1012.76 1012.28 1011.75 1011.22 1010.75 1010.36 1010.08 1009.92 1009.85 1009.83 1009.83 1009.80 1009.72 1009.59 1009.41 1009.23 1009.07 1008.98 1008.99 1009.13 1009.37 1009.72 1010.13 1010.56 1010.97 1011.33 1011.61 1011.80 1011.89 1011.89 1011.78
1010.56 1010.50 1010.64 1010.97 1011.44 1012.00 1012.57 1013.11 1013.57 1013.92 1014.18 1014.34 1014.44 1014.46 1014.40 1014.25 1014.01 1013.64 1013.17 1012.61 1012.01 1011.42 1010.90 1010.48 1010.20 1010.06 1010.04 1010.07 1010.13 1010.14 1010.09 1009.94 1009.72 1009.46 1009.21 1009.02 1008.93 1008.97 1009.14 1009.43 1009.81 1010.22 1010.64 1011.02 1011.34 1011.57 1011.71 1011.75 1011.71
1010.46 1010.61 1010.99 1011.57 1012.27 1013.01 1013.70 1014.28 1014.70 1014.97 1015.09 1015.12 1015.06 1014.95 1014.80 1014.58 1014.29 1013.90 1013.41 1012.86 1012.25 1011.66 1011.14 1010.73 1010.47 1010.35 1010.36 1010.43 1010.52 1010.56 1010.52 1010.36 1010.11 1009.80 1009.47 1009.19 1009.01 1008.95 1009.02 1009.23 1009.53 1009.90 1010.28 1010.64 1010.96 1011.21 1011.38 1011.48 1011.51
1010.45 1010.82 1011.45 1012.26 1013.15 1014.02 1014.77 1015.33 1015.67 1015.80 1015.76 1015.60 1015.39 1015.15 1014.90 1014.64 1014.34 1013.97 1013.54 1013.03 1012.49 1011.95 1011.47 1011.09 1010.86 1010.76 1010.78 1010.86 1010.96 1011.01 1010.97 1010.81 1010.55 1010.20 1009.83 1009.48 1009.21 1009.06 1009.03 1009.13 1009.33 1009.61 1009.91 1010.22 1010.50 1010.75 1010.94 1011.09 1011.17
1010.55 1011.13 1011.97 1012.97 1014.01 1014.96 1015.72 1016.21 1016.43 1016.40 1016.17 1015.84 1015.46 1015.10 1014.78 1014.49 1014.22 1013.91 1013.56 1013.16 1012.71 1012.26 1011.84 1011.51 1011.30 1011.21 1011.22 1011.30 1011.39 1011.44 1011.39 1011.24 1010.97 1010.62 1010.22 1009.84 1009.51 1009.27 1009.15 1009.14 1009.22 1009.38 1009.58 1009.80 1010.02 1010.23 1010.42 1010.59 1010.73
1010.75 1011.50 1012.51 1013.64 1014.76 1015.74 1016.46 1016.87 1016.95 1016.75 1016.36 1015.86 1015.35 1014.89 1014.52 1014.23 1013.99 1013.77 1013.52 1013.23 1012.90 1012.54 1012.20 1011.92 1011.72 1011.62 1011.61 1011.66 1011.73 1011.76 1011.71 1011.56 1011.31 1010.98 1010.59 1010.20 1009.84 1009.55 1009.34 1009.22 1009.19 1009.22 1009.30 1009.42 1009.55 1009.71 1009.88 1010.04 1010.20
1011.04 1011.90 1013.00 1014.19 1015.34 1016.29 1016.95 1017.25 1017.22 1016.88 1016.35 1015.74 1015.13 1014.61 1014.21 1013.92 1013.73 1013.59 1013.44 1013.25 1013.02 1012.75 1012.47 1012.22 1012.03 1011.91 1011.86 1011.87 1011.90 1011.91 1011.86 1011.72 1011.51 1011.21 1010.86 1010.49 1010.14 1009.82 1009.55 1009.35 1009.21 1009.13 1009.09 1009.10 1009.14 1009.23 1009.34 1009.48 1009.63
1011.40 1012.31 1013.42 1014.60 1015.71 1016.60 1017.17 1017.39 1017.26 1016.84 1016.23 1015.54 1014.89 1014.33 1013.92 1013.65 1013.49 1013.40 1013.32 1013.21 1013.05 1012.84 1012.60 1012.36 1012.15 1012.00 1011.91 1011.86 1011.85 1011.83 1011.77 1011.66 1011.49 1011.25 1010.97 1010.65 1010.33 1010.02 1009.73 1009.48 1009.26 1009.09 1008.95 1008.86 1008.81 1008.81 1008.86 1008.94 1009.05
1011.83 1012.72 1013.77 1014.88 1015.89 1016.69 1017.18 1017.32 1017.14 1016.68 1016.05 1015.35 1014.69 1014.14 1013.73 1013.47 1013.32 1013.25 1013.19 1013.10 1012.97 1012.78 1012.54 1012.29 1012.06 1011.86 1011.71 1011.61 1011.54 1011.49 1011.44 1011.35 1011.23 1011.06 1010.86 1010.62 1010.36 1010.09 1009.82 1009.55 1009.30 1009.07 1008.86 1008.69 1008.56 1008.48 1008.46 1008.47 1008.52
1012.34 1013.14 1014.09 1015.07 1015.95 1016.63 1017.04 1017.13 1016.93 1016.49 1015.89 1015.24 1014.61 1014.08 1013.67 1013.40 1013.23 1013.13 1013.04 1012.93 1012.77 1012.55 1012.29 1012.01 1011.73 1011.47 1011.26 1011.11 1010.99 1010.91 1010.85 1010.79 1010.72 1010.62 1010.50 1010.36 1010.19 1009.99 1009.76 1009.52 1009.27 1009.02 1008.77 1008.55 1008.37 1008.23 1008.14 1008.08 1008.05
1012.93 1013.62 1014.42 1015.23 1015.97 1016.53 1016.86 1016.92 1016.74 1016.34 1015.81 1015.22 1014.65 1014.14 1013.73 1013.42 1013.20 1013.02 1012.86 1012.68 1012.45 1012.17 1011.86 1011.53 1011.19 1010.89 1010.62 1010.41 1010.25 1010.14 1010.06 1010.02 1009.99 1009.96 1009.93 1009.87 1009.80 1009.68 1009.54 1009.35 1009.13 1008.90 1008.65 1008.42 1008.20 1008.03 1007.88 1007.77 1007.67
Thickness
5852 5849 5845 5832 5812 5799 5801 5826 5844 5851 5855 5863 5869 5861 5849 5840 5831 5821 5845 5850 5844 5837 5832 5827 5823 5819 5816 5814 5811 5808 5806 5804 5802 5800 5797 5794 5792 5789 5787 5785 5783 5780 5778 5776 5773 5771 5769 5767 5766
5854 5850 5838 5823 5803 5786 5799 5827 5835 5845 5859 5868 5867 5861 5850 5842 5848 5844 5845 5847 5845 5838 5833 5828 5824 5820 5816 5813 5811 5808 5805 5803 5801 5798 5796 5793 5791 5788 5786 5784 5781 5779 5777 5774 5772 5770 5768 5767 5765
5855 5851 5829 5813 5798 5789 5800 5825 5834 5849 5864 5868 5860 5860 5851 5843 5848 5847 5849 5848 5842 5837 5832 5828 5824 5820 5817 5813 5810 5808 5805 5802 5799 5796 5794 5791 5789 5787 5785 5782 5780 5778 5775 5773 5771 5769 5768 5766 5765
5852 5837 5824 5805 5798 5810 5818 5830 5841 5845 5854 5862 5857 5847 5853 5860 5858 5853 5850 5845 5840 5835 5831 5828 5824 5820 5816 5813 5809 5806 5803 5800 5797 5794 5792 5789 5787 5785 5782 5780 5778 5776 5774 5772 5770 5768 5767 5765 5763
5846 5825 5806 5794 5803 5820 5833 5841 5841 5838 5842 5850 5850 5839 5841 5857 5862 5854 5847 5842 5838 5833 5830 5827 5823 5820 5816 5812 5808 5804 5801 5798 5795 5792 5789 5787 5785 5782 5780 5778 5776 5775 5773 5771 5769 5768 5766 5764 5763
5829 5815 5792 5785 5803 5825 5836 5846 5841 5833 5835 5842 5843 5835 5836 5851 5852 5848 5846 5841 5838 5833 5829 5825 5822 5818 5814 5810 5806 5802 5799 5795 5792 5789 5786 5784 5782 5780 5778 5776 5774 5773 5771 5770 5768 5766 5765 5763 5762
5821 5806 5794 5798 5803 5815 5834 5847 5841 5833 5831 5837 5844 5829 5832 5841 5849 5848 5844 5840 5835 5832 5828 5825 5820 5816 5811 5807 5803 5799 5795 5792 5789 5786 5783 5781 5779 5778 5776 5774 5772 5771 5769 5768 5766 5765 5763 5762 5761
5833 5809 5799 5798 5804 5814 5840 5847 5847 5839 5832 5845 5847 5828 5826 5840 5848 5846 5840 5837 5833 5830 5827 5823 5818 5813 5808 5803 5799 5796 5793 5789 5786 5784 5781 5779 5777 5775 5773 5771 5770 5769 5767 5766 5765 5763 5762 5760 5759
5841 5801 5788 5798 5807 5820 5840 5841 5844 5848 5839 5840 5846 5846 5850 5854 5850 5842 5835 5830 5828 5826 5824 5821 5816 5810 5805 5800 5797 5793 5790 5787 5784 5782 5779 5777 5775 5772 5770 5769 5767 5766 5765 5764 5763 5761 5759 5758 5756
5819 5792 5802 5821 5828 5830 5840 5842 5840 5834 5828 5829 5837 5849 5858 5856 5850 5843 5838 5832 5827 5824 5820 5817 5813 5808 5802 5798 5795 5791 5788 5785 5783 5780 5777 5774 5772 5769 5767 5765 5764 5763 5763 5762 5760 5759 5757 5755 5754
5819 5809 5823 5833 5841 5841 5839 5843 5847 5830 5819 5829 5836 5844 5853 5855 5851 5845 5842 5840 5832 5825 5818 5814 5809 5804 5799 5795 5792 5788 5785 5782 5779 5777 5774 5771 5767 5765 5763 5761 5761 5761 5760 5759 5758 5756 5754 5754 5752
5817 5823 5831 5836 5843 5840 5840 5844 5842 5838 5841 5852 5854 5856 5854 5852 5847 5844 5839 5836 5829 5820 5813 5808 5802 5797 5794 5791 5789 5786 5782 5779 5777 5774 5770 5766 5763 5761 5760 5758 5758 5757 5757 5756 5755 5753 5753 5752 5750
5814 5820 5832 5839 5840 5842 5843 5841 5843 5843 5856 5856 5851 5848 5847 5845 5844 5843 5838 5830 5822 5809 5800 5796 5789 5786 5785 5783 5783 5781 5779 5777 5774 5771 5767 5763 5760 5758 5757 5756 5755 5754 5753 5752 5751 5750 5749 5749 5748
5812 5817 5825 5834 5838 5842 5836 5835 5836 5842 5852 5846 5840 5837 5838 5834 5831 5827 5823 5815 5806 5797 5791 5785 5778 5773 5771 5774 5775 5776 5776 5775 5772 5769 5766 5763 5759 5756 5753 5751 5750 5750 5749 5748 5747 5747 5746 5745 5745
5813 5805 5811 5823 5829 5834 5830 5816 5828 5842 5841 5834 5831 5828 5822 5818 5814 5809 5805 5800 5793 5785 5780 5775 5771 5765 5761 5761 5765 5768 5771 5770 5769 5767 5764 5761 5757 5753 5750 5747 5745 5745 5745 5744 5743 5743 5742 5741 5742
5796 5787 5781 5807 5819 5826 5811 5791 5825 5836 5830 5822 5820 5814 5808 5803 5800 5796 5795 5791 5785 5778 5772 5766 5763 5756 5753 5752 5756 5757 5760 5761 5760 5759 5757 5755 5752 5748 5745 5742 5740 5740 5739 5738 5738 5737 5736 5736 5736
5769 5762 5770 5793 5817 5819 5806 5792 5815 5825 5820 5809 5805 5802 5795 5788 5784 5783 5783 5781 5778 5773 5763 5756 5754 5750 5748 5746 5746 5748 5750 5752 5752 5750 5749 5748 5746 5743 5740 5737 5735 5735 5733 5732 5733 5732 5731 5730 5731
5754 5760 5770 5779 5805 5811 5798 5790 5799 5803 5803 5793 5789 5786 5778 5773 5770 5772 5771 5770 5768 5765 5760 5752 5746 5743 5743 5740 5739 5739 5741 5742 5743 5743 5742 5742 5741 5739 5735 5732 5731 5730 5728 5727 5727 5726 5727 5727 5727
5776 5773 5771 5784 5803 5797 5782 5772 5772 5777 5775 5768 5767 5765 5763 5761 5760 5760 5760 5758 5755 5752 5751 5746 5738 5739 5735 5730 5728 5728 5729 5732 5735 5737 5738 5737 5736 5734 5730 5728 5726 5725 5723 5722 5723 5722 5722 5722 5724
5780 5770 5769 5781 5797 5790 5769 5754 5757 5760 5756 5753 5748 5744 5742 5743 5745 5746 5745 5744 5742 5742 5743 5741 5736 5733 5732 5728 5726 5725 5724 5725 5729 5732 5733 5733 5731 5729 5727 5723 5722 5721 5719 5719 5719 5718 5716 5717 5719
5775 5770 5770 5772 5780 5779 5769 5742 5741 5745 5749 5747 5741 5733 5729 5728 5729 5733 5734 5734 5734 5733 5731 5729 5728 5726 5725 5723 5722 5722 5721 5719 5720 5721 5722 5725 5726 5724 5722 5720 5718 5717 5716 5715 5716 5715 5712 5711 5713
5762 5782 5781 5775 5758 5742 5753 5723 5724 5727 5729 5730 5728 5724 5720 5719 5722 5725 5727 5727 5726 5723 5722 5719 5718 5715 5714 5715 5714 5713 5710 5709 5712 5713 5715 5717 5718 5718 5718 5716 5715 5713 5712 5712 5712 5712 5709 5708 5707
5775 5786 5778 5769 5753 5738 5737 5720 5711 5717 5709 5710 5714 5716 5713 5713 5714 5716 5717 5717 5715 5713 5711 5709 5707 5705 5704 5704 5703 5703 5702 5702 5705 5706 5707 5709 5710 5711 5711 5711 5710 5708 5708 5708 5708 5708 5706 5706 5705
5785 5774 5760 5745 5731 5715 5721 5713 5698 5702 5700 5700 5705 5708 5708 5706 5707 5709 5709 5707 5704 5701 5698 5696 5692 5690 5690 5691 5691 5690 5690 5691 5692 5693 5695 5697 5699 5701 5703 5704 5704 5703 5703 5703 5703 5704 5703 5702 5702
5773 5738 5711 5708 5697 5699 5714 5703 5695 5704 5707 5704 5703 5703 5703 5701 5699 5699 5699 5696 5692 5689 5686 5683 5679 5676 5677 5677 5677 5677 5677 5677 5677 5678 5680 5682 5685 5688 5691 5694 5696 5697 5698 5698 5698 5697 5698 5698 5698
5763 5740 5707 5695 5691 5695 5704 5694 5695 5707 5706 5705 5704 5701 5698 5693 5692 5691 5689 5685 5683 5680 5676 5672 5669 5666 5665 5664 5663 5663 5663 5662 5663 5664 5665 5667 5669 5673 5677 5681 5685 5688 5690 5691 5691 5691 5692 5693 5694
5755 5743 5739 5712 5708 5692 5690 5690 5694 5700 5698 5697 5695 5691 5687 5684 5682 5679 5676 5673 5670 5667 5664 5661 5657 5655 5653 5651 5650 5648 5648 5648 5648 5649 5651 5653 5655 5659 5662 5666 5670 5674 5678 5680 5682 5683 5684 5686 5688
5763 5750 5726 5708 5691 5681 5687 5684 5680 5684 5685 5686 5683 5680 5678 5676 5672 5670 5666 5663 5659 5654 5650 5645 5641 5638 5636 5635 5633 5633 5632 5632 5632 5632 5634 5636 5639 5642 5645 5649 5653 5658 5663 5667 5670 5673 5677 5679 5681
5748 5739 5721 5704 5695 5679 5671 5676 5694 5688 5686 5680 5676 5673 5670 5667 5664 5661 5657 5653 5648 5641 5634 5627 5621 5618 5615 5613 5612 5612 5612 5613 5613 5613 5615 5618 5621 5625 5628 5632 5636 5641 5646 5652 5656 5661 5666 5670 5673
5747 5736 5720 5698 5691 5683 5668 5669 5697 5688 5681 5675 5669 5666 5662 5658 5653 5648 5643 5636 5629 5622 5616 5609 5603 5598 5595 5593 5590 5590 5590 5589 5589 5591 5594 5598 5601 5605 5610 5614 5618 5624 5630 5636 5641 5647 5654 5659 5664